| time (UTC) | temp F | wind direction | speed MPH | gust MPH | rain 1hr in | rain 24hr in | rain mn in | humidity % | barometer mb |
| 20260507163055 | 85 | 103 | 0.0 | 3.0 | 0.00 | 0.00 | 0.00 | 17 | 1011.3 |
| 20260507161550 | 84 | 287 | 0.0 | 2.0 | 0.00 | 0.00 | 0.00 | 20 | 1011.4 |
| 20260507160045 | 80 | 360 | 0.0 | 2.0 | 0.00 | 0.00 | 0.00 | 22 | 1011.6 |
| 20260507154547 | 80 | 328 | 0.0 | 2.0 | 0.00 | 0.00 | 0.00 | 23 | 1011.7 |
| 20260507153048 | 79 | 33 | 0.0 | 3.0 | 0.00 | 0.00 | 0.00 | 26 | 1011.7 |
| 20260507151537 | 77 | 162 | 1.0 | 4.0 | 0.00 | 0.00 | 0.00 | 28 | 1011.8 |
| 20260507150039 | 77 | 276 | 1.0 | 6.0 | 0.00 | 0.00 | 0.00 | 28 | 1011.8 |
| 20260507144531 | 75 | 17 | 0.0 | 3.0 | 0.00 | 0.00 | 0.00 | 28 | 1011.8 |
| 20260507143034 | 74 | 19 | 0.0 | 3.0 | 0.00 | 0.00 | 0.00 | 27 | 1011.8 |
| 20260507141526 | 74 | 85 | 0.0 | 2.0 | 0.00 | 0.00 | 0.00 | 28 | 1011.6 |
| 20260507140024 | 73 | 78 | 0.0 | 1.0 | 0.00 | 0.00 | 0.00 | 29 | 1011.6 |
| 20260507134522 | 71 | 32 | 0.0 | 1.0 | 0.00 | 0.00 | 0.00 | 29 | 1011.5 |
| 20260507133020 | 70 | 6 | 0.0 | 6.0 | 0.00 | 0.00 | 0.00 | 30 | 1011.3 |
| 20260507131527 | 69 | 349 | 1.0 | 4.0 | 0.00 | 0.00 | 0.00 | 30 | 1011.1 |
| 20260507130019 | 68 | 8 | 1.0 | 5.0 | 0.00 | 0.00 | 0.00 | 31 | 1011.0 |
| 20260507124519 | 68 | 322 | 0.0 | 2.0 | 0.00 | 0.00 | 0.00 | 31 | 1011.0 |
| 20260507123018 | 68 | 360 | 0.0 | 2.0 | 0.00 | 0.00 | 0.00 | 31 | 1011.1 |
| 20260507121517 | 69 | 53 | 2.0 | 6.0 | 0.00 | 0.00 | 0.00 | 30 | 1011.2 |
| 20260507120032 | 68 | 39 | 2.0 | 6.0 | 0.00 | 0.00 | 0.00 | 31 | 1011.2 |
| 20260507114518 | 67 | 325 | 0.0 | 2.0 | 0.00 | 0.00 | 0.00 | 31 | 1011.1 |
| 20260507113014 | 67 | 11 | 0.0 | 1.0 | 0.00 | 0.00 | 0.00 | 31 | 1011.0 |
| 20260507111511 | 68 | 25 | 0.0 | 2.0 | 0.00 | 0.00 | 0.00 | 31 | 1011.0 |
| 20260507110010 | 68 | 15 | 0.0 | 2.0 | 0.00 | 0.00 | 0.00 | 31 | 1011.1 |
| 20260507104511 | 68 | 4 | 0.0 | 2.0 | 0.00 | 0.00 | 0.00 | 31 | 1011.2 |
| 20260507103008 | 68 | 15 | 0.0 | 2.0 | 0.00 | 0.00 | 0.00 | 31 | 1011.3 |
| 20260507101507 | 68 | 349 | 0.0 | 2.0 | 0.00 | 0.00 | 0.00 | 32 | 1011.4 |
| 20260507100007 | 68 | 19 | 0.0 | 1.0 | 0.00 | 0.00 | 0.00 | 32 | 1011.4 |
| 20260507094606 | 68 | 348 | 0.0 | 2.0 | 0.00 | 0.00 | 0.00 | 32 | 1011.7 |
| 20260507093001 | 69 | 39 | 0.0 | 0.0 | 0.00 | 0.00 | 0.00 | 31 | 1011.8 |
| 20260507091601 | 69 | 39 | 0.0 | 1.0 | 0.00 | 0.00 | 0.00 | 31 | 1011.8 |
| 20260507090100 | 69 | 27 | 0.0 | 1.0 | 0.00 | 0.00 | 0.00 | 31 | 1011.8 |
| 20260507084559 | 70 | 359 | 0.0 | 2.0 | 0.00 | 0.00 | 0.00 | 32 | 1011.9 |
| 20260507083158 | 70 | 5 | 0.0 | 2.0 | 0.00 | 0.00 | 0.00 | 31 | 1011.9 |
| 20260507081603 | 69 | 348 | 0.0 | 2.0 | 0.00 | 0.00 | 0.00 | 33 | 1012.0 |
| 20260507080057 | 69 | 4 | 0.0 | 0.0 | 0.00 | 0.00 | 0.00 | 35 | 1012.1 |
| 20260507074607 | 69 | 4 | 0.0 | 0.0 | 0.00 | 0.00 | 0.00 | 35 | 1012.2 |
| 20260507073050 | 70 | 4 | 0.0 | 0.0 | 0.00 | 0.00 | 0.00 | 31 | 1012.2 |
| 20260507071545 | 72 | 4 | 0.0 | 0.0 | 0.00 | 0.00 | 0.00 | 29 | 1012.1 |
| 20260507070044 | 72 | 4 | 0.0 | 0.0 | 0.00 | 0.00 | 0.00 | 27 | 1012.1 |
| 20260507064543 | 73 | 4 | 0.0 | 0.0 | 0.00 | 0.00 | 0.00 | 26 | 1012.0 |
| 20260507063042 | 74 | 356 | 0.0 | 2.0 | 0.00 | 0.00 | 0.00 | 26 | 1011.8 |
| 20260507061542 | 74 | 350 | 0.0 | 1.0 | 0.00 | 0.00 | 0.00 | 25 | 1011.9 |
| 20260507060041 | 74 | 352 | 0.0 | 2.0 | 0.00 | 0.00 | 0.00 | 25 | 1012.0 |
| 20260507054559 | 75 | 297 | 0.0 | 1.0 | 0.00 | 0.00 | 0.00 | 25 | 1011.9 |
| 20260507053043 | 75 | 307 | 0.0 | 1.0 | 0.00 | 0.00 | 0.00 | 25 | 1012.0 |
| 20260507051540 | 76 | 314 | 0.0 | 1.0 | 0.00 | 0.00 | 0.00 | 25 | 1012.0 |
| 20260507050041 | 76 | 309 | 0.0 | 1.0 | 0.00 | 0.00 | 0.00 | 24 | 1011.9 |
| 20260507044547 | 76 | 302 | 0.0 | 0.0 | 0.00 | 0.00 | 0.00 | 24 | 1011.8 |
| 20260507043038 | 75 | 243 | 0.0 | 0.0 | 0.00 | 0.00 | 0.00 | 25 | 1011.7 |
| 20260507041541 | 75 | 243 | 0.0 | 0.0 | 0.00 | 0.00 | 0.00 | 24 | 1011.5 |
| 20260507040039 | 77 | 243 | 0.0 | 1.0 | 0.00 | 0.00 | 0.00 | 23 | 1011.4 |
| 20260507034536 | 77 | 249 | 0.0 | 1.0 | 0.00 | 0.00 | 0.00 | 22 | 1011.2 |
| 20260507033037 | 78 | 235 | 0.0 | 1.0 | 0.00 | 0.00 | 0.00 | 22 | 1011.1 |
| 20260507031541 | 78 | 235 | 0.0 | 1.0 | 0.00 | 0.00 | 0.00 | 21 | 1010.9 |
| 20260507030046 | 79 | 252 | 0.0 | 4.0 | 0.00 | 0.00 | 0.00 | 20 | 1010.7 |
| 20260507024541 | 79 | 225 | 0.0 | 3.0 | 0.00 | 0.00 | 0.00 | 20 | 1010.6 |
| 20260507023034 | 80 | 239 | 0.0 | 2.0 | 0.00 | 0.00 | 0.00 | 19 | 1010.4 |
| 20260507021535 | 80 | 215 | 0.0 | 2.0 | 0.00 | 0.00 | 0.00 | 19 | 1010.2 |
| 20260507020033 | 82 | 294 | 0.0 | 2.0 | 0.00 | 0.00 | 0.00 | 18 | 1010.2 |
| 20260507014544 | 83 | 340 | 0.0 | 2.0 | 0.00 | 0.00 | 0.00 | 18 | 1010.1 |
| 20260507013031 | 83 | 287 | 0.0 | 5.0 | 0.00 | 0.00 | 0.00 | 18 | 1010.1 |
| 20260507011533 | 84 | 330 | 0.0 | 5.0 | 0.00 | 0.00 | 0.00 | 17 | 1010.1 |
| 20260507010033 | 84 | 62 | 1.0 | 6.0 | 0.00 | 0.00 | 0.00 | 17 | 1010.2 |
| 20260507004529 | 84 | 215 | 1.0 | 5.0 | 0.00 | 0.00 | 0.00 | 18 | 1010.1 |
| 20260507003028 | 85 | 217 | 1.0 | 10.0 | 0.00 | 0.00 | 0.00 | 18 | 1010.1 |
| 20260507001529 | 85 | 195 | 2.0 | 6.0 | 0.00 | 0.00 | 0.00 | 17 | 1010.1 |
| 20260507000035 | 85 | 198 | 0.0 | 4.0 | 0.00 | 0.00 | 0.00 | 18 | 1010.0 |
| 20260506234525 | 84 | 311 | 1.0 | 5.0 | 0.00 | 0.00 | 0.00 | 18 | 1010.1 |
| 20260506233023 | 84 | 35 | 1.0 | 4.0 | 0.00 | 0.00 | 0.00 | 18 | 1010.3 |
| 20260506231522 | 83 | 241 | 1.0 | 7.0 | 0.00 | 0.00 | 0.00 | 18 | 1010.4 |
| 20260506230019 | 85 | 61 | 1.0 | 5.0 | 0.00 | 0.00 | 0.00 | 17 | 1010.6 |
| 20260506224518 | 85 | 302 | 1.0 | 5.0 | 0.00 | 0.00 | 0.00 | 18 | 1010.8 |
| 20260506223015 | 85 | 195 | 0.0 | 2.0 | 0.00 | 0.00 | 0.00 | 18 | 1010.9 |
| 20260506221511 | 85 | 224 | 1.0 | 8.0 | 0.00 | 0.00 | 0.00 | 18 | 1011.2 |
| 20260506220020 | 82 | 238 | 0.0 | 4.0 | 0.00 | 0.00 | 0.00 | 19 | 1011.3 |
| 20260506214512 | 85 | 330 | 1.0 | 8.0 | 0.00 | 0.00 | 0.00 | 17 | 1011.5 |
| 20260506213008 | 83 | 333 | 1.0 | 5.0 | 0.00 | 0.00 | 0.00 | 18 | 1011.8 |
| 20260506211509 | 82 | 295 | 1.0 | 6.0 | 0.00 | 0.00 | 0.00 | 19 | 1012.0 |
| 20260506210009 | 82 | 38 | 1.0 | 7.0 | 0.00 | 0.00 | 0.00 | 19 | 1012.3 |
| 20260506204505 | 82 | 259 | 2.0 | 7.0 | 0.00 | 0.00 | 0.00 | 19 | 1012.5 |
| 20260506203004 | 81 | 293 | 0.0 | 5.0 | 0.00 | 0.00 | 0.00 | 20 | 1012.6 |
| 20260506201502 | 79 | 354 | 3.0 | 7.0 | 0.00 | 0.00 | 0.00 | 21 | 1012.8 |
| 20260506200003 | 82 | 352 | 2.0 | 6.0 | 0.00 | 0.00 | 0.00 | 20 | 1012.9 |
| 20260506194634 | 80 | 322 | 2.0 | 8.0 | 0.00 | 0.00 | 0.00 | 21 | 1013.0 |
| 20260506193105 | 79 | 318 | 2.0 | 5.0 | 0.00 | 0.00 | 0.00 | 21 | 1013.3 |
| 20260506191556 | 80 | 352 | 2.0 | 8.0 | 0.00 | 0.00 | 0.00 | 22 | 1013.4 |
| 20260506190100 | 78 | 27 | 1.0 | 6.0 | 0.00 | 0.00 | 0.00 | 23 | 1013.6 |
| 20260506184555 | 79 | 41 | 4.0 | 8.0 | 0.00 | 0.00 | 0.00 | 21 | 1013.8 |
| 20260506183054 | 79 | 4 | 1.0 | 6.0 | 0.00 | 0.00 | 0.00 | 23 | 1014.1 |
| 20260506181553 | 79 | 39 | 1.0 | 5.0 | 0.00 | 0.00 | 0.00 | 24 | 1014.2 |
| 20260506174554 | 77 | 255 | 2.0 | 9.0 | 0.00 | 0.00 | 0.00 | 26 | 1014.5 |
| 20260506173056 | 79 | 278 | 0.0 | 4.0 | 0.00 | 0.00 | 0.00 | 25 | 1014.4 |
| 20260506171553 | 78 | 41 | 0.0 | 2.0 | 0.00 | 0.00 | 0.00 | 26 | 1014.4 |
| 20260506170100 | 77 | 92 | 0.0 | 2.0 | 0.00 | 0.00 | 0.00 | 26 | 1014.3 |
| 20260506164546 | 76 | 260 | 0.0 | 3.0 | 0.00 | 0.00 | 0.00 | 28 | 1014.4 |